TimeCST,TemperatureF,Dew PointF,Humidity,Sea Level PressureIn,VisibilityMPH,Wind Direction,Wind SpeedMPH,Gust SpeedMPH,PrecipitationIn,Events,Conditions,WindDirDegrees,DateUTC
12:52 AM,14.0,10.0,84,30.05,8.0,NNE,18.4,-,N/A,,Overcast,30,2012-12-25 06:52:00
1:52 AM,14.0,10.0,84,30.05,8.0,NNE,21.9,31.1,N/A,,Overcast,30,2012-12-25 07:52:00
2:52 AM,14.0,10.0,84,30.06,8.0,NNE,20.7,29.9,N/A,,Overcast,30,2012-12-25 08:52:00
3:52 AM,12.9,9.0,84,30.10,7.0,NNE,19.6,29.9,N/A,,Overcast,30,2012-12-25 09:52:00
4:52 AM,14.0,10.0,84,30.11,7.0,NNE,21.9,29.9,N/A,,Overcast,20,2012-12-25 10:52:00
5:37 AM,14.0,10.4,86,30.03,1.8,NNE,26.5,34.5,0.00,Snow,Light Snow,20,2012-12-25 11:37:00
5:44 AM,14.0,10.4,86,30.03,0.8,NNE,26.5,35.7,0.00,Snow,Light Snow,20,2012-12-25 11:44:00
5:52 AM,14.0,10.0,84,30.13,0.8,NNE,24.2,35.7,0.00,Snow,Light Snow,20,2012-12-25 11:52:00
6:25 AM,14.0,8.6,79,30.03,1.0,North,27.6,35.7,0.01,Snow,Light Snow,10,2012-12-25 12:25:00
6:48 AM,14.0,8.6,79,30.06,2.0,NNE,26.5,33.4,0.01,Snow,Light Snow,20,2012-12-25 12:48:00
6:52 AM,14.0,9.0,80,30.17,2.5,NNE,26.5,33.4,0.01,Snow,Light Snow,20,2012-12-25 12:52:00
7:01 AM,14.0,8.6,79,30.07,3.0,NNE,25.3,32.2,0.00,Snow,Light Snow,20,2012-12-25 13:01:00
7:52 AM,14.0,9.0,80,30.19,5.0,NNE,26.5,32.2,0.00,Snow,Light Snow,20,2012-12-25 13:52:00
8:52 AM,12.9,8.1,81,30.21,5.0,North,29.9,39.1,0.00,Snow,Light Snow,10,2012-12-25 14:52:00
9:22 AM,14.0,8.6,79,30.11,8.0,North,26.5,38.0,0.00,,Overcast,10,2012-12-25 15:22:00
9:52 AM,14.0,7.0,74,30.23,10.0,NNE,27.6,38.0,0.00,,Overcast,20,2012-12-25 15:52:00
10:52 AM,15.1,6.1,68,30.26,10.0,North,29.9,38.0,N/A,,Overcast,10,2012-12-25 16:52:00
11:52 AM,15.1,6.1,68,30.30,10.0,North,24.2,34.5,N/A,,Overcast,10,2012-12-25 17:52:00
12:22 PM,15.8,6.8,68,30.18,10.0,NNE,23.0,34.5,N/A,,Overcast,20,2012-12-25 18:22:00
12:52 PM,16.0,8.1,71,30.31,8.0,North,26.5,34.5,N/A,,Overcast,10,2012-12-25 18:52:00
1:38 PM,17.6,8.6,68,30.20,2.5,North,24.2,31.1,0.00,Snow,Light Snow,10,2012-12-25 19:38:00
1:47 PM,15.8,8.6,73,30.20,1.5,North,26.5,32.2,0.00,Snow,Light Snow,360,2012-12-25 19:47:00
1:52 PM,16.0,9.0,74,30.32,1.2,North,26.5,32.2,0.00,Snow,Light Snow,360,2012-12-25 19:52:00
2:03 PM,15.8,8.6,73,30.20,1.8,North,24.2,29.9,0.00,Snow,Light Snow,360,2012-12-25 20:03:00
2:17 PM,17.6,8.6,68,30.20,2.5,North,23.0,32.2,0.00,Snow,Light Snow,360,2012-12-25 20:17:00
2:25 PM,17.6,8.6,68,30.20,1.8,North,21.9,35.7,0.00,Snow,Light Snow,360,2012-12-25 20:25:00
2:35 PM,15.8,8.6,73,30.21,1.8,North,23.0,33.4,0.00,Snow,Light Snow,360,2012-12-25 20:35:00
2:44 PM,15.8,8.6,73,30.21,2.5,North,25.3,32.2,0.00,Snow,Light Snow,360,2012-12-25 20:44:00
2:52 PM,16.0,8.1,71,30.34,4.0,North,25.3,35.7,0.01,,Haze,10,2012-12-25 20:52:00
3:00 PM,15.8,8.6,73,30.22,3.0,North,24.2,32.2,N/A,,Haze,10,2012-12-25 21:00:00
3:09 PM,15.8,8.6,73,30.22,2.5,North,20.7,32.2,0.00,Snow,Light Snow,360,2012-12-25 21:09:00
3:17 PM,15.8,8.6,73,30.22,4.0,North,23.0,31.1,0.00,,Haze,10,2012-12-25 21:17:00
3:29 PM,15.8,8.6,73,30.22,2.5,North,26.5,34.5,0.00,Snow,Light Snow,360,2012-12-25 21:29:00
3:38 PM,15.8,6.8,68,30.22,6.0,North,25.3,34.5,0.00,,Haze,10,2012-12-25 21:38:00
3:52 PM,15.1,8.1,74,30.35,8.0,North,25.3,31.1,0.00,,Overcast,10,2012-12-25 21:52:00
4:52 PM,14.0,7.0,74,30.35,6.0,North,19.6,31.1,0.00,Snow,Light Snow,360,2012-12-25 22:52:00
5:32 PM,12.2,6.8,79,30.23,4.0,North,21.9,27.6,0.00,Snow,Light Snow,360,2012-12-25 23:32:00
5:52 PM,12.0,7.0,80,30.35,10.0,North,17.3,-,0.00,,Mostly Cloudy,360,2012-12-25 23:52:00
6:48 PM,10.4,6.8,85,30.23,10.0,North,17.3,-,N/A,,Scattered Clouds,360,2012-12-26 00:48:00
6:52 PM,10.9,7.0,84,30.36,10.0,North,17.3,-,N/A,,Mostly Cloudy,360,2012-12-26 00:52:00
7:07 PM,10.4,6.8,85,30.24,10.0,North,17.3,-,N/A,,Scattered Clouds,360,2012-12-26 01:07:00
7:52 PM,10.0,6.1,84,30.38,10.0,North,16.1,-,N/A,,Clear,360,2012-12-26 01:52:00
8:52 PM,10.0,5.0,80,30.38,10.0,North,15.0,-,N/A,,Clear,360,2012-12-26 02:52:00
9:52 PM,9.0,3.9,80,30.38,10.0,North,13.8,-,N/A,,Clear,350,2012-12-26 03:52:00
10:52 PM,10.9,5.0,77,30.39,10.0,NNW,11.5,-,N/A,,Mostly Cloudy,340,2012-12-26 04:52:00
11:52 PM,10.4,5.0,79,30.27,10.0,NNW,10.4,-,N/A,,Overcast,340,2012-12-26 05:52:00